AirNav   TITAN Aviation Fuels
 
 1353 users online  

MD42 Keymar Airpark
Keymar, Maryland, USA

GOING TO KEYMAR?


FAA INFORMATION EFFECTIVE 01 DECEMBER 2022

Location

FAA Identifier: MD42
Lat/Long: 39-37-10.3580N 077-13-38.9400W
39-37.172633N 077-13.649000W
39.6195439,-77.2274833
(estimated)
Elevation: 437 ft. / 133.2 m (surveyed)
Variation: 10W (1985)
From city: 2 miles NE of KEYMAR, MD
Time zone: UTC -5 (UTC -4 during Daylight Saving Time)
Zip code: 21757

Airport Operations

Airport use: Private use. Permission required prior to landing
Activation date: 08/1971
Control tower: no
ARTCC: WASHINGTON CENTER
FSS: LEESBURG FLIGHT SERVICE STATION
Attendance: UNATNDD
Wind indicator: yes
Segmented circle: no
Lights: FOR LIRL CALL 410-756-1724.

Airport Communications

WX AWOS-3 at DMW (10 nm E): 121.25 (410-876-1281)
WX AWOS-3 at FDK (14 nm SW): PHONE 301-600-1457

Nearby radio navigation aids

VOR radial/distance  VOR name  Freq  Var
EMIr311/13.7WESTMINSTER VORTAC117.9008W
FDKr037/(14.2)FREDERICK VOR109.0008W
HGRr106/(29.4)HAGERSTOWN VOR109.8007W
MRBr071/32.0MARTINSBURG VORTAC112.1007W
BALr327/37.6BALTIMORE VORTAC115.1011W
THSr126/38.3ST THOMAS VORTAC115.0007W

 
NDB name  Hdg/Dist  Freq  Var  ID
ELLICOTT325/28.937111WFND ..-. -. -..

Airport Services

Airframe service: NONE
Powerplant service: NONE

Runway Information

Runway 5/23

Dimensions: 1950 x 100 ft. / 594 x 30 m
Surface: turf
Runway edge lights: low intensity
RUNWAY 5  RUNWAY 23
Traffic pattern: rightleft
Obstructions: none20 ft. bldg, 200 ft. from runway

Airport Ownership and Management from official FAA records

Ownership: Privately-owned
Owner: DENNIS & BRENDA YOUNG
1585 FRANCIS SCOTT KEY HGWY
KEYMAR, MD 21757
Phone (410) 259-4250
Manager: DENNIS & BRENDA YOUNG
1585 FRANCIS SCOTT KEY HWY
KEYMAR, MD 21757
Phone 410-259-4250
EMERGENCY.

Airport Operational Statistics

Aircraft based on the field: 13
Single engine airplanes: 10
Ultralights: 3
    

Additional Remarks

LIGHT SPORT AIRCRAFT AND ULTRALIGHT VEHICLES ON & INVOF ARPT.
FOR CD CTC POTOMAC APCH AT 866-709-4993.

Instrument Procedures

There are no published instrument procedures at MD42.

Some nearby airports with instrument procedures:

KDMW - Carroll County Regional Airport/Jack B Poage Field (10 nm E)
2W2 - Clearview Airpark (13 nm SE)
W05 - Gettysburg Regional Airport (13 nm N)
KFDK - Frederick Municipal Airport (14 nm SW)
W50 - Davis Airport (23 nm S)
 
Loc | Ops | Rwys | IFR | FBO | Links
Com | Nav | Svcs | Stats | Notes
Area around MD42 (Keymar Airpark)
 
Road maps at: MapQuest Bing Google
 
Aerial photo
No photo
 
Sectional chart

 
Airport distance calculator
Flying to Keymar Airpark? Find the distance to fly.

From to MD42

Sunrise and sunset
Times for 08-Dec-2022
 Local
(UTC-5)
 Zulu
(UTC)
Morning civil twilight06:4811:48
Sunrise07:1812:18
Sunset16:4421:44
Evening civil twilight17:1422:14

Current date and time
Zulu (UTC)  08-Dec-2022 14:13:46
Local (UTC-5)  08-Dec-2022 09:13:46
 
METAR
KDMW 
10nm E 
081355Z AUTO 36006KT 10SM CLR 11/06 A3027 RMK AO2
KFDK 
14nm SW 
081347Z 00000KT 7SM CLR 07/07 A3029
TAF
KBWI 
37nm SE 
081141Z 0812/0918 33004KT P6SM BKN040 FM081400 34005KT P6SM BKN050 FM082000 36008KT P6SM BKN250 FM090400 35004KT P6SM OVC100 FM091100 36003KT P6SM SCT050 BKN250
KMRB 
37nm W 
081141Z 0812/0912 00000KT P6SM OVC035 FM081400 34006KT P6SM OVC050 FM082200 35007KT P6SM BKN100 FM090400 34004KT 4SM BR VCSH OVC100 FM091000 35003KT P6SM BKN250
KMDT 
41nm NE 
081120Z 0812/0912 31005KT 6SM BR OVC050 FM081500 33006KT P6SM BKN040 FM090000 34004KT P6SM OVC250
KMTN 
42nm SE 
081141Z 0812/0912 30003KT P6SM SCT035 BKN040 FM081500 33007KT P6SM BKN050 FM082100 35008G14KT P6SM BKN100 FM090400 32004KT P6SM OVC250
KIAD 
42nm S 
081141Z 0812/0918 36006KT P6SM SCT035 OVC250 FM081400 36006KT P6SM BKN050 OVC250 FM082100 35008KT P6SM BKN100 FM090600 35004KT P6SM OVC100 FM091200 01006KT P6SM SCT050 BKN250
NOTAMs
Click for the latest NOTAMs
NOTAMs are issued by the DoD/FAA and will open in a separate window not controlled by AirNav.

 

 
 

Would you like to see your business listed on this page?

 If your business provides an interesting product or service to pilots, flight crews, aircraft, or users of the Keymar Airpark, you should consider listing it here.  To start the listing process, click on the button below
 
Add a business
 

Other Pages about Keymar Airpark

Update a link
 
Copyright © AirNav, LLC. All rights reserved. Privacy Policy  Contact